Vertical_Velocity
-1 7 -14 -3 -2 -5 10 15 5 -4 -15 24 31 -16 0 1 -20 -0 25 -12 -18 8 5 9 -7 12 -0 13 -13 -5 2 -2 -7 -4 -5 -4 -4 1 -2 -1 -1 -1 -3 0
8 -5 -9 3 7 5 6 -4 -16 -4 4 65 13 -12 29 -4 5 -18 11 18 -8 2 14 1 4 2 4 -3 -1 -8 2 -1 -2 -0 0 -1 2 3 7 3 -2 -3 -3 -1
15 -16 6 8 -3 9 3 6 -1 -7 -4 5 17 -2 -6 32 -21 11 -12 8 32 -27 -6 42 2 -5 -6 -0 1 -9 -9 5 2 0 2 1 -1 -3 -7 -8 -5 -5 1 -1
-5 -10 -1 16 0 11 10 2 3 4 17 -7 31 -16 -19 -13 15 -2 -6 -6 2 29 -16 11 27 2 2 -9 -1 -2 -9 -2 9 7 -1 -5 -1 -2 2 2 7 5 1 1
-38 9 -4 18 -28 28 -48 2 15 8 -1 18 -31 35 -32 -5 4 -29 -13 6 15 12 -6 8 15 59 8 7 4 4 3 -15 -3 5 0 3 -0 -2 5 -2 -4 -2 2 2
-15 -9 15 -14 -10 14 -7 43 -14 13 17 20 -28 32 -31 -7 -9 21 18 -35 -34 -40 -16 -18 5 8 24 37 1 -1 -5 2 -13 -7 7 4 -1 4 -1 2 -2 -1 -1 3
28 -28 -7 -2 5 2 9 18 1 19 19 -15 -8 22 -34 1 1 2 -1 44 49 14 -7 -16 -5 -15 4 -6 21 10 2 -5 10 -8 -16 -3 5 0 1 3 -1 1 -0 -6
13 -25 -0 24 -14 -8 28 -2 5 -2 -1 -15 -5 -12 -80 5 -32 4 10 0 14 2 43 38 3 15 15 -8 -25 15 20 7 7 -0 10 -5 -9 4 3 6 0 -4 -2 -3
-6 -22 -10 7 27 7 -52 21 -10 21 -4 20 -5 7 15 -11 -10 -36 2 -5 4 7 0 9 1 -9 5 6 3 -6 -3 10 -0 -1 6 11 16 -9 3 1 2 8 1 -5
-2 -26 -2 -6 -6 -7 19 -23 24 -7 9 -0 -13 -9 -14 5 -13 2 -15 6 -10 -13 7 -8 17 -0 -12 -16 -12 14 10 11 5 3 6 6 9 8 -2 5 1 1 10 -1
-1 3 -26 -15 -0 11 -12 10 -10 17 15 5 -1 -33 -23 8 26 6 8 0 25 4 24 -7 -8 17 57 15 0 -8 3 5 4 -1 4 1 9 6 1 -2 6 2 5 7
-3 -6 -5 -10 -12 1 -26 -15 -25 12 -24 5 -6 -55 17 11 19 37 -35 -15 -9 12 -8 -4 1 -1 7 5 15 -2 -4 -6 3 5 -2 -2 1 4 1 2 1 6 2 3
-1 1 -6 -32 -13 23 3 -6 3 7 2 -14 19 -22 -3 -13 9 58 8 -2 8 32 20 2 1 -9 -2 -3 -2 9 5 7 3 -6 2 6 6 1 0 1 4 4 8 5
0 -7 7 -2 3 17 -31 -13 8 14 14 -13 -11 -26 -21 10 -1 -7 12 11 3 -8 -7 -4 3 5 6 4 -2 1 6 1 -4 3 4 1 1 -1 3 3 1 -1 4 1
17 0 12 -3 -0 5 5 0 -15 4 -8 27 -12 -6 -27 -13 -3 -23 1 -4 -18 -15 -4 -7 3 1 -0 -4 4 -15 -5 -6 -0 1 3 9 3 1 -1 -4 -1 5 -4 0
1 -14 5 -13 -7 4 10 4 6 -2 -6 2 4 -14 -6 -10 -4 12 4 -7 4 1 2 -10 -5 -2 3 5 -5 -10 -12 2 -1 1 1 -1 5 3 3 1 -1 -7 -2 -2
2 -2 4 -29 -2 -0 -8 -10 2 -9 -13 2 -5 -21 13 -5 -2 -4 8 6 -3 9 -10 -0 14 -1 3 -2 -0 3 -0 -0 -4 -1 9 2 1 1 5 1 -3 1 -3 1
-4 -3 2 -16 -1 4 -24 9 21 18 4 20 32 30 6 9 -13 -10 -0 43 -15 -15 27 -16 -27 -10 -16 -1 -5 -8 -4 -7 -2 -2 -3 -1 -3 -6 2 -0 -0 -2 2 3
-5 1 6 3 -1 -23 -26 -29 -15 34 -25 22 -9 -20 6 -7 -22 -11 11 3 -6 1 -24 -19 9 9 -14 -15 -3 6 -3 -6 -3 -5 3 3 -4 -10 -4 -2 2 -4 -3 -2
37 1 29 8 4 1 -5 -0 27 5 -23 -3 -1 1 -5 -1 -2 -3 -4 2 0 4 6 7 -5 4 -2 -9 1 2 -0 3 -4 2 -4 0 3 -4 -6 0 -2 -0 1 -3
1 13 5 4 8 -15 12 6 -14 15 -9 -0 11 9 -4 -12 8 -14 -1 -3 4 -3 0 -6 5 -6 -2 -3 0 -6 -2 1 9 -5 -2 -1 -0 0 -0 -1 1 -2 3 1
11 15 -2 1 8 1 5 1 -5 0 -6 2 -3 14 4 -10 -5 -6 5 7 0 -3 0 3 -10 -1 -3 0 5 -13 -8 -5 12 1 -2 1 -5 -3 2 4 2 -1 -6 -2
-10 4 10 34 -14 -4 25 -11 -14 -0 -2 -1 8 -4 -2 -5 -1 -5 -18 -1 -2 -5 -3 7 8 -11 -3 -11 -1 -22 -17 6 9 4 -3 1 4 1 5 -2 7 1 3 1
-12 -7 0 9 -6 7 15 3 4 9 16 3 -0 1 2 -1 0 -15 -13 -5 4 -6 -7 -6 7 -6 -17 4 3 -15 -4 3 7 -2 0 -2 -10 -0 -4 -9 4 9 4 5
5 -1 -0 -19 -17 -8 -2 14 7 3 -6 6 4 -0 4 -13 -12 -9 -5 -1 -1 -4 -6 -4 -7 -2 -16 -6 -7 -2 -0 7 -2 -5 -2 4 -3 -6 -3 4 -1 3 2 5
11 -9 6 -15 -5 0 -1 -1 -1 2 7 -0 1 -6 5 1 -7 -3 -1 1 -0 -7 5 -15 -3 -5 -8 -11 -11 -7 9 7 -6 -4 -6 7 11 -2 -11 1 1 -1 2 1
Height
3084 3085 3080 3082 3087 3088 3090 3091 3088 3087 3095 3098 3096 3095 3100 3104 3106 3109 3113 3117 3121 3125 3130 3132 3137 3139 3141 3142 3139 3144 3148 3151 3153 3154 3156 3159 3161 3163 3166 3168 3171 3173 3175 3177
3078 3072 3075 3081 3083 3085 3084 3083 3078 3083 3086 3090 3088 3087 3092 3096 3097 3101 3105 3110 3112 3118 3123 3126 3129 3133 3134 3137 3135 3136 3143 3145 3147 3150 3153 3155 3158 3160 3162 3164 3166 3167 3169 3172
3069 3070 3073 3073 3075 3077 3075 3074 3077 3079 3082 3080 3082 3080 3083 3086 3090 3095 3097 3100 3106 3109 3114 3120 3121 3124 3127 3130 3132 3130 3134 3139 3141 3145 3147 3150 3152 3152 3154 3156 3159 3161 3163 3165
3062 3064 3065 3065 3065 3071 3065 3071 3075 3075 3080 3074 3076 3071 3075 3079 3082 3086 3089 3094 3097 3102 3107 3111 3115 3116 3118 3121 3126 3126 3127 3130 3136 3139 3140 3142 3144 3145 3149 3151 3153 3156 3157 3158
3055 3058 3058 3057 3058 3063 3057 3069 3069 3069 3071 3071 3068 3069 3063 3075 3076 3082 3082 3087 3090 3094 3098 3102 3106 3111 3111 3114 3117 3121 3123 3121 3126 3131 3133 3135 3136 3139 3142 3143 3145 3147 3149 3151
3053 3052 3052 3049 3048 3054 3058 3061 3061 3061 3062 3061 3061 3063 3056 3062 3068 3074 3078 3082 3084 3087 3090 3093 3096 3101 3106 3108 3109 3113 3116 3118 3114 3118 3124 3126 3128 3132 3133 3134 3136 3138 3140 3142
3050 3047 3047 3050 3049 3047 3050 3053 3050 3051 3049 3046 3057 3058 3053 3058 3064 3069 3070 3074 3078 3076 3079 3084 3088 3090 3094 3098 3102 3104 3106 3109 3112 3110 3108 3114 3118 3122 3125 3126 3127 3129 3130 3133
3048 3043 3043 3046 3046 3046 3044 3046 3044 3041 3040 3041 3048 3044 3046 3057 3061 3060 3062 3065 3067 3069 3071 3076 3080 3083 3085 3091 3095 3097 3097 3098 3101 3104 3105 3102 3106 3108 3113 3117 3118 3118 3120 3124
3052 3042 3037 3039 3042 3044 3039 3037 3044 3040 3039 3035 3034 3036 3043 3049 3052 3054 3055 3059 3059 3063 3066 3068 3070 3073 3077 3079 3082 3086 3088 3089 3089 3093 3095 3098 3098 3096 3101 3106 3110 3110 3111 3114
3057 3046 3040 3036 3033 3029 3036 3039 3039 3038 3034 3034 3033 3034 3034 3040 3042 3046 3048 3052 3055 3056 3058 3061 3067 3070 3070 3072 3073 3076 3076 3077 3078 3080 3083 3085 3088 3089 3090 3096 3098 3100 3103 3106
3054 3052 3040 3039 3037 3037 3035 3036 3035 3035 3036 3032 3028 3027 3035 3036 3043 3045 3046 3047 3049 3051 3053 3054 3057 3061 3064 3062 3062 3064 3065 3066 3067 3069 3071 3072 3076 3079 3080 3083 3088 3090 3095 3098
3056 3052 3045 3039 3032 3034 3039 3039 3039 3037 3026 3029 3032 3030 3031 3032 3036 3042 3043 3044 3043 3045 3044 3047 3048 3051 3053 3053 3055 3057 3059 3057 3056 3057 3060 3062 3065 3068 3070 3072 3077 3081 3085 3088
3058 3054 3047 3037 3034 3030 3031 3034 3036 3034 3034 3028 3027 3027 3029 3030 3032 3033 3031 3032 3030 3033 3035 3039 3044 3045 3043 3046 3047 3047 3048 3048 3048 3047 3051 3054 3057 3059 3062 3064 3067 3071 3074 3076
3056 3053 3052 3047 3043 3043 3038 3025 3032 3033 3032 3032 3030 3026 3021 3020 3022 3018 3021 3023 3026 3029 3030 3032 3035 3036 3037 3038 3037 3039 3039 3039 3039 3041 3043 3046 3047 3049 3052 3054 3057 3060 3063 3066
3052 3046 3047 3043 3040 3040 3038 3036 3028 3028 3028 3028 3027 3027 3022 3019 3020 3023 3018 3020 3024 3025 3026 3027 3027 3027 3027 3030 3032 3032 3032 3031 3032 3033 3035 3038 3038 3040 3041 3043 3045 3047 3049 3052
3047 3041 3042 3033 3035 3034 3031 3031 3029 3025 3022 3020 3021 3021 3022 3018 3015 3018 3019 3018 3017 3019 3020 3020 3020 3021 3022 3023 3024 3025 3025 3024 3024 3025 3027 3029 3030 3031 3033 3033 3034 3035 3037 3038
3041 3040 3039 3026 3035 3031 3022 3026 3026 3023 3021 3019 3016 3013 3013 3014 3012 3009 3012 3014 3014 3014 3010 3012 3010 3009 3011 3011 3014 3016 3015 3013 3012 3012 3017 3018 3020 3021 3023 3023 3023 3023 3024 3026
3032 3036 3037 3030 3032 3026 3017 3020 3020 3018 3016 3014 3011 3008 3007 3005 3004 3006 3009 3003 3000 2999 3000 3000 3000 3003 3002 3004 3005 3006 3006 3004 3001 3003 3005 3006 3008 3010 3012 3014 3014 3014 3012 3012
3027 3029 3031 3029 3025 3017 3014 3014 3013 3011 3009 3010 3006 3004 3004 3003 3000 3000 3000 2995 2996 2997 2992 2994 2996 2996 2995 2995 2997 2998 2995 2992 2993 2995 2994 2994 2996 2998 3000 3003 3004 3004 3004 3002
3026 3024 3026 3024 3020 3015 3010 3011 3008 3007 3004 3002 2999 2998 2997 2996 2993 2992 2989 2989 2987 2988 2988 2988 2986 2987 2989 2988 2988 2987 2987 2985 2984 2982 2983 2984 2985 2986 2988 2991 2993 2995 2995 2994
3025 3023 3019 3017 3014 3008 3007 3003 3001 3003 3004 2998 3000 2997 2992 2990 2990 2985 2982 2981 2980 2978 2976 2976 2977 2977 2976 2977 2978 2977 2977 2975 2974 2973 2972 2972 2972 2975 2975 2977 2979 2982 2984 2986
3023 3020 3016 3013 3010 3002 3000 3001 3002 3000 2996 2993 2993 2991 2987 2985 2982 2979 2976 2973 2970 2969 2968 2967 2966 2967 2968 2966 2966 2966 2966 2965 2965 2964 2962 2961 2960 2962 2964 2965 2966 2969 2972 2974
3017 3017 3015 3014 3003 2999 3000 2996 2995 2993 2989 2988 2986 2983 2981 2977 2973 2970 2967 2965 2961 2958 2955 2954 2952 2952 2952 2953 2955 2955 2953 2955 2955 2954 2952 2950 2948 2949 2951 2952 2954 2955 2958 2960
3009 3008 3004 3001 2998 2996 2996 2994 2994 2989 2986 2982 2979 2976 2973 2968 2963 2960 2957 2954 2950 2947 2943 2940 2938 2936 2936 2938 2938 2941 2942 2942 2943 2942 2941 2940 2937 2938 2940 2943 2943 2944 2946 2948
3003 3002 2997 2992 2990 2988 2988 2988 2984 2982 2979 2975 2971 2968 2964 2958 2954 2951 2947 2943 2938 2935 2931 2928 2923 2920 2920 2921 2921 2922 2925 2929 2928 2929 2930 2930 2927 2926 2927 2930 2932 2933 2935 2936
2995 2993 2990 2984 2986 2982 2979 2978 2977 2973 2969 2964 2960 2956 2955 2951 2946 2942 2937 2933 2928 2921 2917 2913 2908 2904 2902 2902 2902 2904 2907 2911 2914 2915 2917 2918 2917 2914 2912 2919 2921 2922 2923 2925